Location: Charlo
(47.4385°N, 114.1723°W)
Time: 23:20:36
(UTC+00:00)

Envisat - Visible Passes

Search period start: 08 August 2022 00:00
Search period end: 18 August 2022 00:00
Orbit: 763 x 765 km, 98.2° (Epoch: 08 August)

Date Brightness Start Highest point End Pass type
(mag) Time Alt. Az. Time Alt. Az. Time Alt. Az.
08 Aug 5.9 10:33:44 10° ENE 10:35:06 11° E 10:36:27 10° E visible
09 Aug 4.5 11:33:06 10° NNE 11:37:52 38° E 11:42:34 10° SSE visible
10 Aug 5.5 10:57:01 10° NE 11:00:35 19° E 11:04:07 10° SE visible
12 Aug 4.8 11:21:28 10° NNE 11:25:58 31° E 11:30:26 10° SSE visible
13 Aug 5.7 10:45:45 10° NE 10:48:37 15° E 10:51:29 10° ESE visible
14 Aug 3.9 11:46:17 10° NNE 11:51:15 51° E 11:56:11 10° S visible
15 Aug 5.2 11:09:54 10° NE 11:14:03 25° E 11:18:11 10° SSE visible
16 Aug 5.9 10:34:53 10° ENE 10:36:38 12° E 10:38:24 10° ESE visible
17 Aug 4.4 11:34:35 10° NNE 11:39:22 40° E 11:44:09 10° SSE visible
